EW0538 Weather Reports


time (UTC)temp
F
wind
direction
speed
knots
gust
knots
rain 1hr
in
rain 24hr
in
rain mn
in
humidity
%
barometer
mb
20260831124716 47 137 0.0 0.0 0.00 0.39 0.00 97 1017.5
20260831123732 47 136 0.0 0.0 0.00 0.39 0.00 97 1017.5
20260831122709 47 136 0.0 0.0 0.00 0.39 0.00 97 1017.5
20260831120602 47 136 0.0 0.0 0.00 0.39 0.00 97 1017.6
20260831115556 47 136 0.0 0.0 0.00 0.39 0.00 97 1017.5
20260831114600 47 137 0.0 0.0 0.00 0.39 0.00 97 1017.5
20260831113619 48 137 0.0 0.0 0.00 0.39 0.00 97 1017.4
20260831112548 48 136 0.0 0.0 0.00 0.39 0.00 97 1017.3
20260831111548 48 136 0.0 0.0 0.00 0.39 0.00 97 1017.1
20260831110548 48 136 0.0 0.0 0.00 0.39 0.00 97 1017.0
20260831105605 48 137 0.0 0.0 0.00 0.39 0.00 97 1016.9
20260831104622 48 137 0.0 0.0 0.00 0.39 0.00 97 1017.1
20260831103631 48 137 0.0 0.0 0.00 0.39 0.00 97 1017.0
20260831102620 48 136 0.0 0.0 0.00 0.39 0.00 97 1016.9
20260831100511 49 137 0.0 0.0 0.00 0.39 0.00 97 1016.8
20260831093239 50 136 0.0 0.0 0.00 0.39 0.00 97 1016.8
20260831092231 50 137 0.0 0.0 0.00 0.39 0.00 97 1016.8
20260831091211 50 137 0.0 0.0 0.00 0.39 0.00 97 1016.9
20260831090713 49 136 0.0 0.0 0.00 0.39 0.00 97 1016.9
20260831085724 49 137 0.0 0.0 0.00 0.39 0.00 97 1016.8
20260831084657 48 137 0.0 0.0 0.00 0.39 0.00 97 1016.9
20260831083625 48 137 0.0 0.0 0.00 0.39 0.00 97 1016.8
20260831081519 48 137 0.0 0.0 0.00 0.39 0.00 97 1016.9
20260831080537 48 137 0.0 0.0 0.00 0.39 0.00 96 1016.8
20260831075551 49 137 0.0 0.0 0.00 0.39 0.00 96 1016.8
20260831074531 49 137 0.0 0.0 0.00 0.39 0.00 96 1016.9
20260831073515 49 137 0.0 0.0 0.00 0.39 0.00 96 1016.7
20260831072509 50 136 0.0 0.0 0.00 0.39 0.00 96 1016.7
20260831071530 50 136 0.0 0.0 0.00 0.39 0.00 96 1016.8
20260831070550 50 137 0.0 0.0 0.00 0.39 0.00 96 1016.9
20260831065610 50 137 0.0 0.0 0.00 0.39 0.00 96 1016.9
20260831064633 50 137 0.0 0.0 0.00 0.39 0.00 96 1017.0
20260831063624 51 137 0.0 0.0 0.00 0.39 0.00 96 1016.9
20260831062613 51 136 0.0 0.0 0.00 0.39 0.00 96 1016.8
20260831061623 51 137 0.0 0.0 0.00 0.39 0.00 96 1016.7
20260831060548 51 127 0.0 0.0 0.00 0.39 0.00 96 1016.9
20260831055534 51 127 0.0 0.0 0.00 0.39 0.40 96 1016.9
20260831054542 52 127 0.0 0.0 0.00 0.39 0.40 95 1016.9
20260831053547 52 127 0.0 0.0 0.00 0.39 0.40 96 1016.8
20260831052521 52 127 0.0 0.0 0.00 0.39 0.40 96 1016.9
20260831050332 53 127 0.0 0.0 0.00 0.39 0.40 95 1016.7
20260831045306 53 127 0.0 0.0 0.00 0.39 0.40 95 1016.8
20260831044325 53 127 0.0 0.0 0.00 0.39 0.40 95 1016.7
20260831043346 54 127 0.0 0.0 0.00 0.39 0.40 95 1016.8
20260831042356 54 127 0.0 0.0 0.00 0.39 0.40 94 1017.0
20260831035105 54 145 0.0 0.0 0.00 0.39 0.40 94 1017.3
20260831034112 54 112 0.0 0.0 0.00 0.39 0.40 93 1017.1
20260831033050 54 117 0.0 0.0 0.00 0.39 0.40 94 1017.2
20260831031008 54 130 0.0 0.0 0.00 0.39 0.40 93 1017.1
20260831030006 54 226 0.0 0.0 0.04 0.39 0.40 92 1016.7
20260831025018 55 229 0.9 9.6 0.09 0.39 0.40 92 1016.3
20260831024019 55 358 1.7 5.2 0.21 0.38 0.38 92 1014.1
20260831023038 56 347 0.0 2.6 0.43 0.33 0.34 90 1017.0
20260831022027 57 328 2.6 0.0 0.31 0.29 0.28 88 1017.1
20260831021037 58 44 0.9 7.8 0.23 0.24 0.24 88 1016.3
20260831020028 59 354 0.0 0.0 0.20 0.19 0.20 91 1015.4
20260831015026 59 354 0.0 0.0 0.12 0.16 0.17 90 1014.3
20260831014006 60 352 0.0 0.0 0.00 0.14 0.15 89 1013.6
20260831013022 60 352 0.0 0.0 0.00 0.13 0.13 89 1013.2
20260831012025 59 290 0.0 0.0 0.00 0.13 0.13 90 1012.8
20260831005913 60 356 0.0 0.0 0.00 0.13 0.13 88 1012.4
20260831004841 60 357 0.0 0.0 0.00 0.13 0.13 88 1012.7
20260831003848 60 356 0.0 0.0 0.00 0.13 0.13 87 1012.8
20260831002851 61 94 0.0 1.7 0.00 0.13 0.13 86 1012.9
20260831001850 61 265 0.0 0.0 0.00 0.13 0.13 84 1013.2
20260831000827 61 266 0.0 0.0 0.00 0.13 0.13 82 1013.1
20260830235838 61 266 0.0 0.0 0.00 0.13 0.13 81 1012.9
20260830234847 62 256 0.0 0.0 0.00 0.13 0.13 82 1012.8
20260830233858 62 14 0.0 0.0 0.00 0.13 0.13 80 1012.4
20260830232840 63 122 0.0 0.0 0.00 0.13 0.13 76 1013.1
20260830230715 65 319 0.0 0.0 0.00 0.13 0.13 69 1013.1
20260830225722 65 319 0.0 0.0 0.00 0.13 0.13 68 1013.2
20260830224724 66 351 0.0 0.0 0.00 0.13 0.13 67 1013.2
20260830223732 66 28 0.0 0.0 0.00 0.13 0.13 67 1013.1
20260830222728 66 4 0.0 0.9 0.00 0.13 0.13 63 1013.2
20260830221707 67 6 0.0 1.7 0.00 0.13 0.13 62 1013.4
20260830220641 67 121 0.0 0.0 0.00 0.13 0.13 63 1013.4
20260830213354 64 119 0.0 2.6 0.00 0.13 0.13 71 1014.0
20260830212331 63 115 0.0 1.7 0.00 0.13 0.13 75 1014.2
20260830211342 63 82 0.0 0.0 0.00 0.13 0.13 78 1014.4
20260830210325 62 354 0.0 0.9 0.00 0.13 0.13 76 1014.6
20260830205253 62 341 0.0 1.7 0.00 0.13 0.13 78 1014.7
20260830204246 61 141 0.0 2.6 0.00 0.13 0.13 79 1014.8
20260830202128 61 346 0.0 0.9 0.00 0.13 0.13 82 1014.8
20260830201129 61 133 0.0 4.3 0.00 0.13 0.13 81 1014.6
20260830195019 60 112 0.0 3.5 0.00 0.13 0.13 88 1015.3
20260830194031 60 148 0.0 0.9 0.00 0.13 0.13 84 1015.1
20260830193013 60 338 0.0 0.0 0.00 0.13 0.13 88 1014.9
20260830192017 58 359 0.0 0.9 0.00 0.13 0.13 91 1015.0
20260830191004 57 151 0.0 0.0 0.08 0.13 0.13 89 1015.3
20260830190026 57 4 0.9 0.0 0.13 0.13 0.13 85 1014.5
20260830185031 57 23 0.9 7.0 0.00 0.08 0.08 85 1014.2
20260830184015 57 191 1.7 10.4 0.04 0.08 0.08 86 1013.5
20260830183020 56 345 6.1 17.4 0.10 0.08 0.08 85 1013.1
20260830181954 60 324 7.0 20.0 0.20 0.01 0.01 77 1012.3
20260830180923 64 321 9.6 27.8 0.00 0.00 0.00 63 1012.0
20260830175938 70 8 8.7 27.8 0.00 0.00 0.00 54 1011.2
20260830174951 73 33 0.9 8.7 0.00 0.04 0.00 52 1010.3
20260830172902 70 6 1.7 6.1 0.00 0.09 0.00 60 1010.5
20260830171909 69 18 2.6 7.0 0.00 0.09 0.00 59 1010.8
20260830170845 68 343 2.6 7.0 0.00 0.09 0.00 61 1010.9
20260830165813 69 29 1.7 7.8 0.00 0.09 0.00 59 1011.0
20260830162622 65 338 0.0 4.3 0.00 0.09 0.00 67 1011.3
20260830161643 64 4 0.9 4.3 0.00 0.09 0.00 70 1011.2
20260830155453 63 30 0.0 2.6 0.00 0.09 0.00 71 1011.6
20260830154431 62 350 0.0 1.7 0.00 0.09 0.00 74 1011.8
20260830153412 61 340 0.0 3.5 0.00 0.09 0.00 77 1012.1
20260830152434 60 348 0.0 0.0 0.00 0.09 0.00 77 1012.1
20260830151417 59 347 0.0 1.7 0.00 0.09 0.00 77 1012.2
20260830150433 59 117 0.0 0.9 0.00 0.09 0.00 78 1012.2
20260830145436 59 14 0.0 0.0 0.00 0.09 0.00 80 1012.4
20260830144452 58 13 0.0 0.0 0.00 0.09 0.00 83 1012.4
20260830143459 57 13 0.0 0.0 0.00 0.09 0.00 85 1012.5
20260830142506 57 336 0.0 0.0 0.00 0.09 0.00 86 1012.5
20260830141515 56 127 0.0 0.0 0.00 0.09 0.00 87 1012.6
20260830140513 55 338 0.0 0.0 0.00 0.09 0.00 89 1012.7
20260830135538 54 146 0.0 0.0 0.00 0.09 0.00 90 1013.0
20260830134550 54 147 0.0 0.0 0.00 0.09 0.00 89 1013.0
20260830133605 54 119 0.0 0.0 0.00 0.09 0.00 90 1013.1
20260830132610 54 119 0.0 0.0 0.00 0.09 0.00 90 1013.3
20260830130518 53 131 0.0 0.0 0.00 0.09 0.00 91 1013.3
20260830125532 53 131 0.0 0.0 0.00 0.09 0.00 91 1013.0